Location: Grange Rosano
(44.4500°N, 6.9667°E)
Time: 07:39:47
(UTC+00:00)

IRS-1C - Pass Details

Date: 26 May 2022
Orbit: 815 x 817 km, 98.9° (Epoch: 01 July)

Event Time Altitude Azimuth Distance (km) Brightness Sun altitude
Rises 03:03:57 0° 15° (NNE) 3,354 8.3 -8.2°
Reaches altitude 10° 03:06:19 10° 17° (NNE) 2,418 7.6 -7.8°
Maximum altitude 03:11:41 78° 104° (ESE) 840 4.3 -7.1°
Drops below altitude 10° 03:16:59 10° 191° (S) 2,399 6.1 -6.4°
Sets 03:19:19 0° 192° (SSW) 3,327 6.8 -6.0°
